TimeCST,TemperatureF,Dew PointF,Humidity,Sea Level PressureIn,VisibilityMPH,Wind Direction,Wind SpeedMPH,Gust SpeedMPH,PrecipitationIn,Events,Conditions,WindDirDegrees,DateUTC
12:53 AM,26.1,24.1,92,29.72,5.0,North,21.9,29.9,0.00,,Overcast,360,2013-12-04 06:53:00
12:58 AM,26.6,24.8,93,29.70,4.0,North,21.9,29.9,0.00,Rain,Light Freezing Rain,360,2013-12-04 06:58:00
1:05 AM,26.6,24.8,93,29.69,4.0,North,19.6,29.9,0.00,Rain,Light Freezing Rain,360,2013-12-04 07:05:00
1:12 AM,26.6,24.8,93,29.69,4.0,North,21.9,28.8,0.00,Rain,Light Freezing Rain,360,2013-12-04 07:12:00
1:50 AM,24.8,23.0,93,29.69,4.0,North,23.0,28.8,0.00,Rain,Light Freezing Rain,350,2013-12-04 07:50:00
1:53 AM,24.1,23.0,96,29.71,4.0,North,20.7,28.8,0.00,Rain,Light Freezing Rain,350,2013-12-04 07:53:00
2:19 AM,24.8,21.2,86,29.70,8.0,North,20.7,28.8,0.00,Rain,Light Freezing Rain,350,2013-12-04 08:19:00
2:32 AM,24.8,21.2,86,29.71,5.0,North,24.2,33.4,0.00,,Overcast,350,2013-12-04 08:32:00
2:53 AM,21.9,19.9,92,29.76,7.0,North,25.3,32.2,0.00,,Overcast,350,2013-12-04 08:53:00
3:21 AM,21.2,19.4,93,29.73,9.0,North,23.0,35.7,0.00,Rain,Light Freezing Rain,350,2013-12-04 09:21:00
3:36 AM,21.2,19.4,93,29.73,8.0,North,24.2,33.4,0.00,,Overcast,350,2013-12-04 09:36:00
3:53 AM,21.0,19.0,92,29.78,9.0,NNW,19.6,-,0.00,,Overcast,340,2013-12-04 09:53:00
4:53 AM,21.0,18.0,88,29.80,10.0,NNW,16.1,25.3,N/A,,Overcast,340,2013-12-04 10:53:00
5:53 AM,19.9,17.1,89,29.81,10.0,NNW,21.9,27.6,N/A,,Overcast,330,2013-12-04 11:53:00
6:53 AM,19.0,16.0,88,29.84,10.0,NNW,13.8,23.0,N/A,,Overcast,330,2013-12-04 12:53:00
7:53 AM,19.0,14.0,81,29.88,9.0,NNW,17.3,21.9,N/A,,Overcast,340,2013-12-04 13:53:00
8:04 AM,19.4,12.2,74,29.81,7.0,NNW,18.4,25.3,0.00,Snow,Light Snow,330,2013-12-04 14:04:00
8:53 AM,18.0,12.0,78,29.89,10.0,NNW,15.0,-,0.00,,Overcast,330,2013-12-04 14:53:00
9:53 AM,18.0,9.0,68,29.89,10.0,NNW,19.6,29.9,N/A,,Overcast,340,2013-12-04 15:53:00
10:44 AM,19.4,8.6,63,29.83,10.0,NNW,18.4,29.9,N/A,,Overcast,330,2013-12-04 16:44:00
10:53 AM,19.9,8.1,60,29.91,10.0,NNW,16.1,28.8,N/A,,Overcast,340,2013-12-04 16:53:00
11:53 AM,21.9,7.0,53,29.91,10.0,NNW,18.4,28.8,N/A,,Overcast,340,2013-12-04 17:53:00
12:53 PM,21.9,6.1,51,29.90,10.0,NW,17.3,27.6,N/A,,Mostly Cloudy,320,2013-12-04 18:53:00
1:53 PM,25.0,7.0,46,29.90,10.0,NNW,21.9,29.9,N/A,,Clear,330,2013-12-04 19:53:00
2:53 PM,25.0,5.0,43,29.92,10.0,NW,21.9,31.1,N/A,,Clear,320,2013-12-04 20:53:00
3:53 PM,24.1,3.0,40,29.95,10.0,NNW,26.5,32.2,N/A,,Clear,330,2013-12-04 21:53:00
4:53 PM,21.0,3.0,46,30.00,10.0,NNW,17.3,25.3,N/A,,Clear,330,2013-12-04 22:53:00
5:53 PM,19.9,3.0,48,30.02,10.0,NNW,17.3,23.0,N/A,,Clear,340,2013-12-04 23:53:00
6:53 PM,18.0,1.9,50,30.06,10.0,NNW,24.2,32.2,N/A,,Clear,330,2013-12-05 00:53:00
7:53 PM,18.0,1.9,50,30.12,10.0,NNW,25.3,33.4,N/A,,Overcast,340,2013-12-05 01:53:00
8:53 PM,16.0,8.1,71,30.18,2.5,NNW,20.7,32.2,0.00,Snow,Light Snow,330,2013-12-05 02:53:00
9:05 PM,15.8,8.6,73,30.06,1.8,NNW,25.3,31.1,0.00,Snow,Light Snow,340,2013-12-05 03:05:00
9:37 PM,15.8,8.6,73,30.10,3.0,NNW,15.0,24.2,0.00,Snow,Light Snow,340,2013-12-05 03:37:00
9:53 PM,16.0,8.1,71,30.21,5.0,North,16.1,-,0.00,Snow,Light Snow,350,2013-12-05 03:53:00
10:01 PM,17.6,6.8,63,30.12,9.0,NNW,17.3,24.2,0.00,,Overcast,340,2013-12-05 04:01:00
10:53 PM,15.1,5.0,64,30.24,10.0,NNW,10.4,-,0.00,,Mostly Cloudy,340,2013-12-05 04:53:00
11:53 PM,16.0,5.0,62,30.25,10.0,NNW,17.3,25.3,N/A,,Mostly Cloudy,330,2013-12-05 05:53:00